Flag for Chile Weather past 2 weeks in Concepción, Chile

Now
52 °F

Passing clouds.


Feels Like: 51 °F
Forecast: 44 / 64 °F
Wind: 5 mph from Southwest

Location: Concepcion Airport

Current Time: May 4, 2015 at 10:22:05 PM

Latest Report: May 4, 2015 at 10:00 PM


Visibility: N/A

Pressure: 30.09 "Hg

Humidity: 88%

Dew point: 48 °F

Location of ConcepciónLocation

Historic Weather in Concepción — Graph

°F

Concepción temperature yesterday

Maximum temperature yesterday: 59 °F (at 2:00 PM)
Minimum temperature yesterday: 39 °F (at 6:00 AM)
Average temperature yesterday: 48 °F

Past Weeks' High & Low Weather Summary

 TemperatureHumidityPressure
High70 °F (Apr 24, 4:00 PM)100% (Apr 20, 7:00 AM)30.24 "Hg (Apr 20, 7:00 AM)
Low39 °F (May 3, 6:00 AM)46% (Apr 24, 4:00 PM)29.86 "Hg (Apr 25, 5:00 PM)
Average54 °F82%30.04 "Hg
* Reported Apr 19 9:00 PM — May 4 9:00 PM, Concepción, Weather by CustomWeather, © 2015

Note: Actual official high and low records may vary slightly from our data, if they occured in-between our weather recording intervals... More about our weather records

Advertising

Concepción weather history for previous 24 hours

 ConditionsComfort  
Time TempWeatherWind HumidityBarometerVisibility
9:00 PM
Mon, May 4
54 °FPassing clouds.6 mph82%30.09 "HgN/A
8:00 PM57 °FPassing clouds.8 mph77%30.09 "HgN/A
7:00 PM59 °FClear.10 mph72%30.07 "Hg10 mi
6:00 PM61 °FSunny.12 mph68%30.04 "Hg10 mi
5:00 PM64 °FSunny.13 mph60%30.04 "Hg10 mi
4:00 PM63 °FSunny.14 mph64%30.04 "Hg10 mi
3:00 PM61 °FSunny.13 mph68%30.07 "Hg10 mi
2:00 PM61 °FPassing clouds.10 mph63%30.07 "HgN/A
1:00 PM59 °FSunny.8 mph68%30.09 "Hg10 mi
12:00 PM55 °FPassing clouds.7 mph77%30.09 "HgN/A
11:00 AM52 °FSunny.2 mph82%30.12 "Hg10 mi
10:00 AM46 °FSunny.2 mph93%30.12 "Hg10 mi
9:00 AM41 °FQuite cool.N/A93%30.09 "HgN/A
8:00 AM41 °FSunny.5 mph93%30.09 "Hg10 mi
7:00 AM41 °FClear.6 mph93%30.09 "Hg10 mi
6:00 AM43 °FClear.7 mph93%30.09 "Hg10 mi
5:00 AM43 °FClear.6 mph93%30.09 "Hg10 mi
4:00 AM45 °FClear.5 mph93%30.12 "Hg10 mi
3:00 AM43 °FClear.7 mph93%30.12 "Hg10 mi
2:00 AM43 °FClear.No wind100%30.15 "Hg10 mi
1:00 AM46 °FClear.5 mph93%30.15 "Hg10 mi
12:00 AM48 °FClear.2 mph94%30.15 "Hg10 mi
11:00 PM
Sun, May 3
46 °FClear.5 mph93%30.15 "Hg10 mi
10:00 PM50 °FClear.3 mph88%30.15 "Hg10 mi
Weather by CustomWeather, © 2015

See weather overviewHow to use our weather pages